Time,TemperatureF,DewpointF,PressureIn,WindDirection,WindDirectionDegrees,WindSpeedMPH,WindSpeedGustMPH,Humidity,HourlyPrecipIn,Conditions,Clouds,dailyrainin,SoftwareType,DateUTC
2013-02-28 00:00:00,32.2,23.1,30.07,SW,229,4.0,4.0,69,0.00,,,0.00,VWS V13.01,2013-02-28 06:00:00,
2013-02-28 00:05:00,32.0,23.0,30.07,SSW,210,2.2,2.7,69,0.00,,,0.00,VWS V13.01,2013-02-28 06:05:00,
2013-02-28 00:13:00,31.8,22.8,30.07,SW,235,2.7,4.0,69,0.00,,,0.00,VWS V13.01,2013-02-28 06:13:00,
2013-02-28 00:18:00,31.8,23.1,30.07,SW,222,3.1,3.1,70,0.00,,,0.00,VWS V13.01,2013-02-28 06:18:00,
2013-02-28 00:23:00,31.8,23.1,30.07,SW,233,3.6,5.4,70,0.00,,,0.00,VWS V13.01,2013-02-28 06:23:00,
2013-02-28 00:28:00,31.8,23.1,30.07,SSW,208,2.7,4.0,70,0.00,,,0.00,VWS V13.01,2013-02-28 06:28:00,
2013-02-28 00:33:00,31.6,23.0,30.04,SSW,203,2.2,3.1,70,0.00,,,0.00,VWS V13.01,2013-02-28 06:33:00,
2013-02-28 00:37:00,31.3,22.6,30.04,SW,215,0.0,0.0,70,0.00,,,0.00,VWS V13.01,2013-02-28 06:37:00,
2013-02-28 00:42:00,31.1,22.8,30.04,SW,215,0.0,0.0,71,0.00,,,0.00,VWS V13.01,2013-02-28 06:42:00,
2013-02-28 00:47:00,30.7,22.5,30.07,South,186,0.0,0.0,71,0.00,,,0.00,VWS V13.01,2013-02-28 06:47:00,
2013-02-28 00:52:00,30.2,22.3,30.07,South,184,0.0,0.0,72,0.00,,,0.00,VWS V13.01,2013-02-28 06:52:00,
2013-02-28 00:57:00,30.0,22.4,30.07,South,184,0.0,0.0,73,0.00,,,0.00,VWS V13.01,2013-02-28 06:57:00,
2013-02-28 01:02:00,30.2,22.6,30.07,South,190,3.1,3.1,73,0.00,,,0.00,VWS V13.01,2013-02-28 07:02:00,
2013-02-28 01:07:00,30.4,23.1,30.07,South,178,3.1,3.6,74,0.00,,,0.00,VWS V13.01,2013-02-28 07:07:00,
2013-02-28 01:12:00,30.4,23.1,30.07,South,172,2.7,3.1,74,0.00,,,0.00,VWS V13.01,2013-02-28 07:12:00,
2013-02-28 01:17:00,30.2,22.6,30.07,South,186,0.0,0.0,73,0.00,,,0.00,VWS V13.01,2013-02-28 07:17:00,
2013-02-28 01:22:00,29.8,22.2,30.07,SSW,195,0.0,0.0,73,0.00,,,0.00,VWS V13.01,2013-02-28 07:22:00,
2013-02-28 01:27:00,29.1,21.5,30.07,SSW,207,0.0,0.0,73,0.00,,,0.00,VWS V13.01,2013-02-28 07:27:00,
2013-02-28 01:32:00,29.3,22.4,30.07,South,186,0.0,2.7,75,0.00,,,0.00,VWS V13.01,2013-02-28 07:32:00,
2013-02-28 01:37:00,29.3,22.4,30.07,SW,228,2.7,2.7,75,0.00,,,0.00,VWS V13.01,2013-02-28 07:37:00,
2013-02-28 01:42:00,29.5,22.8,30.07,SW,222,3.1,3.1,76,0.00,,,0.00,VWS V13.01,2013-02-28 07:42:00,
2013-02-28 01:47:00,29.6,23.3,30.07,SW,217,2.7,3.6,77,0.00,,,0.00,VWS V13.01,2013-02-28 07:47:00,
2013-02-28 01:52:00,30.0,23.4,30.07,SSW,205,3.6,4.9,76,0.00,,,0.00,VWS V13.01,2013-02-28 07:52:00,
2013-02-28 01:57:00,30.2,23.2,30.07,SSW,208,4.0,4.9,75,0.00,,,0.00,VWS V13.01,2013-02-28 07:57:00,
2013-02-28 02:02:00,30.4,23.1,30.07,SW,227,3.1,4.0,74,0.00,,,0.00,VWS V13.01,2013-02-28 08:02:00,
2013-02-28 02:07:00,30.4,23.1,30.07,SSW,213,4.0,4.9,74,0.00,,,0.00,VWS V13.01,2013-02-28 08:07:00,
2013-02-28 02:12:00,30.4,23.1,30.07,SSW,204,3.6,3.6,74,0.00,,,0.00,VWS V13.01,2013-02-28 08:12:00,
2013-02-28 02:17:00,30.4,23.1,30.04,SW,226,4.9,4.9,74,0.00,,,0.00,VWS V13.01,2013-02-28 08:17:00,
2013-02-28 02:22:00,30.4,23.1,30.04,SW,225,3.1,4.0,74,0.00,,,0.00,VWS V13.01,2013-02-28 08:22:00,
2013-02-28 02:27:00,30.5,23.2,30.04,SW,220,4.0,4.0,74,0.00,,,0.00,VWS V13.01,2013-02-28 08:27:00,
2013-02-28 02:32:00,30.5,23.2,30.07,WSW,248,5.4,5.4,74,0.00,,,0.00,VWS V13.01,2013-02-28 08:32:00,
2013-02-28 02:37:00,30.5,23.2,30.07,SW,235,4.9,6.3,74,0.00,,,0.00,VWS V13.01,2013-02-28 08:37:00,
2013-02-28 02:42:00,30.5,23.2,30.07,SW,232,6.3,8.1,74,0.00,,,0.00,VWS V13.01,2013-02-28 08:42:00,
2013-02-28 02:47:00,30.5,23.2,30.07,SW,226,4.0,4.9,74,0.00,,,0.00,VWS V13.01,2013-02-28 08:47:00,
2013-02-28 02:52:00,30.7,23.4,30.07,SSW,213,5.8,5.8,74,0.00,,,0.00,VWS V13.01,2013-02-28 08:52:00,
2013-02-28 02:57:00,30.7,23.4,30.07,SW,218,5.4,6.3,74,0.00,,,0.00,VWS V13.01,2013-02-28 08:57:00,
2013-02-28 03:02:00,30.5,23.6,30.07,SW,226,6.3,8.3,75,0.00,,,0.00,VWS V13.01,2013-02-28 09:02:00,
2013-02-28 03:07:00,30.5,23.6,30.07,SW,221,5.4,5.8,75,0.00,,,0.00,VWS V13.01,2013-02-28 09:07:00,
2013-02-28 03:12:00,30.5,23.6,30.07,SSW,206,5.8,6.3,75,0.00,,,0.00,VWS V13.01,2013-02-28 09:12:00,
2013-02-28 03:17:00,30.4,23.7,30.07,SW,225,5.8,5.8,76,0.00,,,0.00,VWS V13.01,2013-02-28 09:17:00,
2013-02-28 03:22:00,30.2,23.5,30.07,West,259,4.5,5.4,76,0.00,,,0.00,VWS V13.01,2013-02-28 09:22:00,
2013-02-28 03:27:00,30.2,23.2,30.07,WSW,238,6.3,6.3,75,0.00,,,0.00,VWS V13.01,2013-02-28 09:27:00,
2013-02-28 03:32:00,30.2,23.2,30.07,SW,226,5.4,5.4,75,0.00,,,0.00,VWS V13.01,2013-02-28 09:32:00,
2013-02-28 03:37:00,30.2,23.2,30.07,SW,226,3.6,4.9,75,0.00,,,0.00,VWS V13.01,2013-02-28 09:37:00,
2013-02-28 03:42:00,30.0,23.0,30.07,WSW,243,4.9,4.9,75,0.00,,,0.00,VWS V13.01,2013-02-28 09:42:00,
2013-02-28 03:47:00,29.8,23.2,30.07,SW,222,5.4,5.4,76,0.00,,,0.00,VWS V13.01,2013-02-28 09:47:00,
2013-02-28 03:52:00,29.8,23.2,30.07,SW,224,6.3,6.3,76,0.00,,,0.00,VWS V13.01,2013-02-28 09:52:00,
2013-02-28 03:57:00,29.8,23.5,30.07,WSW,244,5.8,5.8,77,0.00,,,0.00,VWS V13.01,2013-02-28 09:57:00,
2013-02-28 04:02:00,29.8,23.5,30.07,WSW,244,6.3,6.3,77,0.00,,,0.00,VWS V13.01,2013-02-28 10:02:00,
2013-02-28 04:07:00,29.6,23.0,30.07,West,259,5.4,5.4,76,0.00,,,0.00,VWS V13.01,2013-02-28 10:07:00,
2013-02-28 04:12:00,29.6,23.0,30.07,SW,220,4.9,6.3,76,0.00,,,0.00,VWS V13.01,2013-02-28 10:12:00,
2013-02-28 04:17:00,29.6,23.3,30.07,SW,217,4.0,5.4,77,0.00,,,0.00,VWS V13.01,2013-02-28 10:17:00,
2013-02-28 04:22:00,29.5,23.1,30.07,SW,222,5.4,6.3,77,0.00,,,0.00,VWS V13.01,2013-02-28 10:22:00,
2013-02-28 04:27:00,29.6,23.3,30.07,WSW,257,3.6,5.4,77,0.00,,,0.00,VWS V13.01,2013-02-28 10:27:00,
2013-02-28 04:32:00,29.8,23.2,30.07,SW,218,3.6,5.4,76,0.00,,,0.00,VWS V13.01,2013-02-28 10:32:00,
2013-02-28 04:37:00,29.8,23.2,30.07,SW,233,5.4,5.8,76,0.00,,,0.00,VWS V13.01,2013-02-28 10:37:00,
2013-02-28 04:42:00,29.6,23.0,30.07,WSW,249,5.4,5.4,76,0.00,,,0.00,VWS V13.01,2013-02-28 10:42:00,
2013-02-28 04:47:00,29.5,23.1,30.07,SW,229,3.1,3.1,77,0.00,,,0.00,VWS V13.01,2013-02-28 10:47:00,
2013-02-28 04:52:00,29.3,23.0,30.07,SW,235,5.8,5.8,77,0.00,,,0.00,VWS V13.01,2013-02-28 10:52:00,
2013-02-28 04:57:00,29.3,23.0,30.07,SW,231,3.6,4.9,77,0.00,,,0.00,VWS V13.01,2013-02-28 10:57:00,
2013-02-28 05:02:00,29.3,23.0,30.07,West,262,4.0,4.0,77,0.00,,,0.00,VWS V13.01,2013-02-28 11:02:00,
2013-02-28 05:07:00,29.1,22.8,30.07,WSW,238,3.1,4.0,77,0.00,,,0.00,VWS V13.01,2013-02-28 11:07:00,
2013-02-28 05:12:00,29.1,22.8,30.07,WSW,246,3.1,3.1,77,0.00,,,0.00,VWS V13.01,2013-02-28 11:12:00,
2013-02-28 05:17:00,28.9,22.6,30.07,WSW,237,3.1,4.0,77,0.00,,,0.00,VWS V13.01,2013-02-28 11:17:00,
2013-02-28 05:22:00,28.9,22.9,30.07,SW,224,8.3,8.3,78,0.00,,,0.00,VWS V13.01,2013-02-28 11:22:00,
2013-02-28 05:27:00,28.9,23.2,30.07,SW,220,6.3,6.3,79,0.00,,,0.00,VWS V13.01,2013-02-28 11:27:00,
2013-02-28 05:32:00,28.7,22.8,30.07,West,263,5.8,5.8,78,0.00,,,0.00,VWS V13.01,2013-02-28 11:32:00,
2013-02-28 05:37:00,28.7,23.1,30.07,West,259,3.6,5.4,79,0.00,,,0.00,VWS V13.01,2013-02-28 11:37:00,
2013-02-28 05:42:00,28.6,22.9,30.07,WSW,248,4.9,5.8,79,0.00,,,0.00,VWS V13.01,2013-02-28 11:42:00,
2013-02-28 05:47:00,28.4,22.7,30.10,WSW,238,3.1,3.6,79,0.00,,,0.00,VWS V13.01,2013-02-28 11:47:00,
2013-02-28 05:52:00,28.2,22.5,30.10,SSW,210,3.1,3.6,79,0.00,,,0.00,VWS V13.01,2013-02-28 11:52:00,
2013-02-28 05:57:00,28.0,22.4,30.10,SSW,209,2.7,2.7,79,0.00,,,0.00,VWS V13.01,2013-02-28 11:57:00,
2013-02-28 06:02:00,27.8,22.5,30.10,SSW,207,3.1,3.6,80,0.00,,,0.00,VWS V13.01,2013-02-28 12:02:00,
2013-02-28 06:07:00,27.8,22.5,30.10,SSW,196,0.0,0.0,80,0.00,,,0.00,VWS V13.01,2013-02-28 12:07:00,
2013-02-28 06:12:00,27.8,22.5,30.10,South,175,3.6,4.9,80,0.00,,,0.00,VWS V13.01,2013-02-28 12:12:00,
2013-02-28 06:17:00,27.7,22.6,30.10,South,184,3.6,3.6,81,0.00,,,0.00,VWS V13.01,2013-02-28 12:17:00,
2013-02-28 06:22:00,27.8,23.1,30.10,SW,214,2.7,2.7,82,0.00,,,0.00,VWS V13.01,2013-02-28 12:22:00,
2013-02-28 06:27:00,27.8,23.4,30.10,SSW,205,3.6,4.0,83,0.00,,,0.00,VWS V13.01,2013-02-28 12:27:00,
2013-02-28 06:32:00,28.0,23.5,30.07,SW,222,3.1,3.6,83,0.00,,,0.00,VWS V13.01,2013-02-28 12:32:00,
2013-02-28 06:37:00,28.0,23.5,30.07,SSW,193,2.7,2.7,83,0.00,,,0.00,VWS V13.01,2013-02-28 12:37:00,
2013-02-28 06:42:00,28.0,23.5,30.07,SW,220,4.0,4.0,83,0.00,,,0.00,VWS V13.01,2013-02-28 12:42:00,
2013-02-28 06:47:00,28.0,23.8,30.10,SSW,213,3.1,3.1,84,0.00,,,0.00,VWS V13.01,2013-02-28 12:47:00,
2013-02-28 06:52:00,28.0,23.8,30.10,SSW,210,3.6,3.6,84,0.00,,,0.00,VWS V13.01,2013-02-28 12:52:00,
2013-02-28 06:57:00,28.2,24.0,30.10,SW,227,3.6,4.0,84,0.00,,,0.00,VWS V13.01,2013-02-28 12:57:00,
2013-02-28 07:02:00,28.2,24.0,30.10,SW,229,3.6,3.6,84,0.00,,,0.00,VWS V13.01,2013-02-28 13:02:00,
2013-02-28 07:07:00,28.2,23.7,30.10,SW,233,3.6,3.6,83,0.00,,,0.00,VWS V13.01,2013-02-28 13:07:00,
2013-02-28 07:12:00,28.2,24.0,30.10,WSW,238,4.0,4.9,84,0.00,,,0.00,VWS V13.01,2013-02-28 13:12:00,
2013-02-28 07:17:00,28.4,23.9,30.10,SSW,212,4.0,4.0,83,0.00,,,0.00,VWS V13.01,2013-02-28 13:17:00,
2013-02-28 07:22:00,28.6,24.1,30.10,SW,227,3.6,4.0,83,0.00,,,0.00,VWS V13.01,2013-02-28 13:22:00,
2013-02-28 07:27:00,28.7,24.2,30.10,SW,235,5.4,5.4,83,0.00,,,0.00,VWS V13.01,2013-02-28 13:27:00,
2013-02-28 07:32:00,29.1,24.3,30.10,SW,221,6.7,6.7,82,0.00,,,0.00,VWS V13.01,2013-02-28 13:32:00,
2013-02-28 07:37:00,29.1,24.0,30.10,SW,236,6.3,6.3,81,0.00,,,0.00,VWS V13.01,2013-02-28 13:37:00,
2013-02-28 07:42:00,29.3,24.2,30.10,WSW,246,5.8,5.8,81,0.00,,,0.00,VWS V13.01,2013-02-28 13:42:00,
2013-02-28 07:47:00,29.5,24.1,30.10,SW,232,3.6,7.6,80,0.00,,,0.00,VWS V13.01,2013-02-28 13:47:00,
2013-02-28 07:52:00,29.8,24.4,30.10,WSW,238,7.2,7.2,80,0.00,,,0.00,VWS V13.01,2013-02-28 13:52:00,
2013-02-28 07:57:00,30.2,24.5,30.10,WSW,238,5.4,5.4,79,0.00,,,0.00,VWS V13.01,2013-02-28 13:57:00,
2013-02-28 08:02:00,30.4,24.6,30.10,SW,233,5.4,5.4,79,0.00,,,0.00,VWS V13.01,2013-02-28 14:02:00,
2013-02-28 08:07:00,30.5,24.8,30.10,SW,236,7.6,7.6,79,0.00,,,0.00,VWS V13.01,2013-02-28 14:07:00,
2013-02-28 08:12:00,30.9,24.9,30.10,West,261,5.4,5.4,78,0.00,,,0.00,VWS V13.01,2013-02-28 14:12:00,
2013-02-28 08:17:00,31.4,24.8,30.10,WSW,258,7.6,8.3,76,0.00,,,0.00,VWS V13.01,2013-02-28 14:17:00,
2013-02-28 08:22:00,31.8,24.8,30.10,WSW,238,7.6,7.6,75,0.00,,,0.00,VWS V13.01,2013-02-28 14:22:00,
2013-02-28 08:27:00,32.0,25.0,30.10,WSW,237,4.9,6.3,75,0.00,,,0.00,VWS V13.01,2013-02-28 14:27:00,
2013-02-28 08:32:00,32.3,25.0,30.13,SW,226,6.3,10.1,74,0.00,,,0.00,VWS V13.01,2013-02-28 14:32:00,
2013-02-28 08:37:00,32.7,25.3,30.13,SW,235,5.4,5.4,74,0.00,,,0.00,VWS V13.01,2013-02-28 14:37:00,